Погода в Струговой Буде

Россия / Брянская область     53°02′08″N   32°01′11″E
темп.,
°C
ветер,
м/с
пор.,
м/с
влажн.,
%
обл.,
%
осадки,
мм/ч
давл.,
гПа
погр.,
м
7 июля, чт
чт700:00+19з2385100 0.2 101183
03:00+18зюз479882 0.8 1012383
06:00+16з579579 1.6 1012477
09:00+16зсз5786100 1.6 1014624
12:00+17сз5676100 0.0 1015811
15:00+18ссз457468 0.0 1016871
18:00+19сз4566100 0.0 10161116
21:00+16сз228398 0.0 101714
8 июля, пт
пт800:00+15с228593 0.0 101828
03:00+13с229098 0.0 101811
06:00+14с239054 0.0 101879
09:00+19ссв2369100 0.0 1019545
12:00+22ссз3352100 0.0 10181464
15:00+22ссз3249100 0.0 10181613
18:00+21ссв236272 0.0 1017170
21:00+19с2264100 0.0 101722
9 июля, сб
сб900:00+15ссв11822 0.0 101711
03:00+14ссз228383 0.0 101615
06:00+14ссв228452 0.0 101634
09:00+20ссв2264100 0.0 1016368
12:00+23ссз2248100 0.0 10141467
15:00+24зсз2145100 0.0 10131667
18:00+23сз3355100 0.0 1011914
21:00+18зсз336981 0.0 101123
10 июля, вс
вс1000:00+15ссв3380100 0.0 101135
03:00+14всв2284100 0.0 101011
06:00+16св2380100 0.0 100948
09:00+17ссв1281100 0.1 100947
12:00+17ссв3591100 1.4 1009223
15:00+22с3262100 1.4 10081010
18:00+21сз5664100 0.0 1007949
21:00+17ссз3587100 0.0 1009119
11 июля, пн
пн1100:00+15сз4895100 0.2 1008197
03:00+14сз489796 0.2 1008221
06:00+14сз4894100 0.0 1007240
09:00+14сз5997100 2.2 1006322
12:00+14зсз61197100 4.5 1005467
15:00+15зсз61194100 8.2 1005581
18:00+15з51095100 2.8 1005434
21:00+15з41194100 3.3 1006400